FIN6HA EFHK-ESGG

Flight info

Callsign FIN6HA
Flight time 2h 9m
Altitude 20000
Route ADIVO Y365 POGOK DCT TUSNI DCT MOXAM
Aircraft AT76/M-SDFGIRY/S

Departure

Time 2026-05-06 15:56
Airport Helsinki Vantaa Airport (EFHK)

Arrival

Time 2026-05-06 18:05
Airport Göteborg Landvetter Airport (ESGG)
Time Latitude Longitude Altitude Speed Heading
2026-05-06 15:54 60.33082 24.94320 171 ft 0 kts 227°
2026-05-06 15:55 60.32989 24.94120 175 ft 47 kts 228°
2026-05-06 15:55 60.32614 24.93305 167 ft 108 kts 227°
2026-05-06 15:56 60.32023 24.92098 476 ft 125 kts 222°
2026-05-06 15:56 60.31333 24.91000 1045 ft 127 kts 217°
2026-05-06 15:56 60.30705 24.89676 1553 ft 137 kts 241°
2026-05-06 15:56 60.30455 24.87844 1984 ft 139 kts 262°
2026-05-06 15:57 60.30434 24.85769 2137 ft 160 kts 281°
2026-05-06 15:57 60.30831 24.83579 2494 ft 169 kts 290°
2026-05-06 15:57 60.31226 24.81346 2933 ft 170 kts 288°
2026-05-06 15:57 60.31577 24.79070 3361 ft 170 kts 286°
2026-05-06 15:58 60.31862 24.76748 3827 ft 171 kts 276°
2026-05-06 15:58 60.31856 24.74345 4219 ft 172 kts 268°
2026-05-06 15:58 60.31778 24.71923 4659 ft 174 kts 267°
2026-05-06 15:58 60.31687 24.69481 5116 ft 175 kts 268°
2026-05-06 15:59 60.31598 24.67025 5590 ft 176 kts 267°
2026-05-06 15:59 60.31515 24.64556 6024 ft 177 kts 268°
2026-05-06 15:59 60.31449 24.62064 6473 ft 178 kts 268°
2026-05-06 15:59 60.31387 24.59597 6876 ft 179 kts 268°
2026-05-06 16:00 60.31330 24.57091 7284 ft 179 kts 269°
2026-05-06 16:00 60.31274 24.54575 7701 ft 179 kts 268°
2026-05-06 16:00 60.31220 24.52053 8107 ft 180 kts 268°
2026-05-06 16:00 60.31162 24.49521 8513 ft 181 kts 268°
2026-05-06 16:01 60.31111 24.46979 8866 ft 182 kts 268°
2026-05-06 16:01 60.31047 24.44436 9267 ft 182 kts 268°
2026-05-06 16:01 60.30985 24.41879 9692 ft 182 kts 268°
2026-05-06 16:01 60.30919 24.39321 10063 ft 182 kts 268°
2026-05-06 16:02 60.30852 24.36775 10419 ft 180 kts 268°
2026-05-06 16:02 60.30788 24.34268 10534 ft 181 kts 268°
2026-05-06 16:02 60.30720 24.31737 10765 ft 180 kts 268°
2026-05-06 16:02 60.30651 24.29262 11135 ft 178 kts 268°
2026-05-06 16:03 60.30586 24.26769 11369 ft 178 kts 268°
2026-05-06 16:03 60.30517 24.24287 11663 ft 177 kts 268°
2026-05-06 16:03 60.30445 24.21823 11983 ft 176 kts 268°
2026-05-06 16:03 60.30377 24.19372 12329 ft 174 kts 268°
2026-05-06 16:04 60.30310 24.16941 12694 ft 174 kts 268°
2026-05-06 16:04 60.30241 24.14507 13022 ft 173 kts 268°
2026-05-06 16:04 60.30162 24.12093 13349 ft 172 kts 268°
2026-05-06 16:04 60.30078 24.09691 13688 ft 171 kts 268°
2026-05-06 16:05 60.30002 24.07297 13985 ft 171 kts 268°
2026-05-06 16:05 60.29936 24.04914 14253 ft 170 kts 268°
2026-05-06 16:05 60.29873 24.02528 14525 ft 170 kts 268°
2026-05-06 16:05 60.29810 24.00177 14787 ft 170 kts 267°
2026-05-06 16:06 60.29743 23.97798 15040 ft 170 kts 266°
2026-05-06 16:06 60.29558 23.95414 15302 ft 170 kts 259°
2026-05-06 16:06 60.29282 23.93123 15553 ft 170 kts 258°
2026-05-06 16:06 60.28993 23.90806 15800 ft 170 kts 258°
2026-05-06 16:07 60.28707 23.88489 16036 ft 170 kts 258°
2026-05-06 16:07 60.28433 23.86139 16286 ft 170 kts 258°
2026-05-06 16:07 60.28175 23.83814 16515 ft 170 kts 258°
2026-05-06 16:07 60.27923 23.81520 16742 ft 170 kts 258°
2026-05-06 16:08 60.27670 23.79198 16967 ft 170 kts 258°
2026-05-06 16:08 60.27418 23.76880 17199 ft 169 kts 258°
2026-05-06 16:08 60.27167 23.74561 17419 ft 170 kts 258°
2026-05-06 16:08 60.26915 23.72243 17621 ft 169 kts 257°
2026-05-06 16:09 60.26667 23.69927 17721 ft 169 kts 257°
2026-05-06 16:09 60.26421 23.67606 17952 ft 169 kts 257°
2026-05-06 16:09 60.26177 23.65290 18171 ft 169 kts 257°
2026-05-06 16:09 60.25930 23.62971 18369 ft 169 kts 257°
2026-05-06 16:10 60.25679 23.60654 18540 ft 169 kts 257°
2026-05-06 16:10 60.25426 23.58343 18724 ft 169 kts 257°
2026-05-06 16:10 60.25170 23.56034 18886 ft 169 kts 257°
2026-05-06 16:10 60.24914 23.53725 19042 ft 169 kts 257°
2026-05-06 16:11 60.24655 23.51413 19205 ft 169 kts 257°
2026-05-06 16:11 60.24397 23.49101 19362 ft 169 kts 256°
2026-05-06 16:11 60.24140 23.46791 19508 ft 169 kts 256°
2026-05-06 16:11 60.23883 23.44481 19666 ft 169 kts 256°
2026-05-06 16:12 60.23623 23.42169 19835 ft 169 kts 256°
2026-05-06 16:12 60.23366 23.39866 19933 ft 173 kts 256°
2026-05-06 16:12 60.23096 23.37438 19974 ft 178 kts 256°
2026-05-06 16:12 60.22825 23.35012 19992 ft 182 kts 256°
2026-05-06 16:13 60.22542 23.32494 20005 ft 187 kts 256°
2026-05-06 16:13 60.22251 23.29924 20010 ft 190 kts 256°
2026-05-06 16:13 60.21954 23.27307 20010 ft 193 kts 256°
2026-05-06 16:13 60.21652 23.24647 20011 ft 196 kts 256°
2026-05-06 16:14 60.21347 23.21965 20014 ft 198 kts 256°
2026-05-06 16:14 60.21038 23.19257 20013 ft 199 kts 256°
2026-05-06 16:14 60.20727 23.16533 20014 ft 200 kts 256°
2026-05-06 16:14 60.20414 23.13795 20013 ft 201 kts 256°
2026-05-06 16:15 60.20099 23.11043 20021 ft 203 kts 256°
2026-05-06 16:15 60.19778 23.08276 20020 ft 203 kts 256°
2026-05-06 16:15 60.19454 23.05508 20018 ft 204 kts 256°
2026-05-06 16:15 60.19123 23.02727 20015 ft 204 kts 255°
2026-05-06 16:16 60.18794 22.99944 20022 ft 205 kts 256°
2026-05-06 16:16 60.18469 22.97152 20017 ft 205 kts 256°
2026-05-06 16:16 60.18149 22.94391 20017 ft 205 kts 256°
2026-05-06 16:16 60.17824 22.91596 20023 ft 205 kts 256°
2026-05-06 16:17 60.17500 22.88807 20022 ft 205 kts 256°
2026-05-06 16:17 60.17175 22.86016 20025 ft 206 kts 256°
2026-05-06 16:17 60.16848 22.83222 20018 ft 205 kts 256°
2026-05-06 16:17 60.16524 22.80435 20023 ft 205 kts 256°
2026-05-06 16:18 60.16195 22.77643 20030 ft 205 kts 256°
2026-05-06 16:18 60.15868 22.74849 20024 ft 205 kts 256°
2026-05-06 16:18 60.15539 22.72060 20026 ft 205 kts 256°
2026-05-06 16:18 60.15211 22.69270 20027 ft 205 kts 256°
2026-05-06 16:19 60.14880 22.66480 20029 ft 205 kts 256°
2026-05-06 16:19 60.14553 22.63694 20026 ft 205 kts 256°
2026-05-06 16:19 60.14219 22.60907 20026 ft 205 kts 255°
2026-05-06 16:19 60.13880 22.58124 20028 ft 205 kts 256°
2026-05-06 16:20 60.13553 22.55333 20029 ft 205 kts 256°
2026-05-06 16:20 60.13223 22.52543 20028 ft 205 kts 256°
2026-05-06 16:20 60.12891 22.49758 20027 ft 205 kts 256°
2026-05-06 16:20 60.12558 22.46973 20027 ft 205 kts 256°
2026-05-06 16:21 60.12228 22.44220 20030 ft 205 kts 255°
2026-05-06 16:21 60.11893 22.41434 20024 ft 205 kts 256°
2026-05-06 16:21 60.11557 22.38651 20030 ft 205 kts 255°
2026-05-06 16:21 60.11221 22.35873 20026 ft 205 kts 255°
2026-05-06 16:22 60.10886 22.33100 20028 ft 205 kts 255°
2026-05-06 16:22 60.10550 22.30328 20028 ft 204 kts 255°
2026-05-06 16:22 60.10214 22.27557 20028 ft 204 kts 255°
2026-05-06 16:22 60.09879 22.24794 20028 ft 204 kts 255°
2026-05-06 16:23 60.09541 22.22034 20038 ft 204 kts 255°
2026-05-06 16:23 60.09203 22.19274 20033 ft 204 kts 255°
2026-05-06 16:23 60.08865 22.16516 20035 ft 204 kts 255°
2026-05-06 16:23 60.08528 22.13757 20029 ft 204 kts 255°
2026-05-06 16:24 60.08189 22.11004 20041 ft 204 kts 255°
2026-05-06 16:24 60.07851 22.08253 20036 ft 204 kts 255°
2026-05-06 16:24 60.07511 22.05502 20037 ft 203 kts 255°
2026-05-06 16:24 60.07171 22.02753 20036 ft 203 kts 255°
2026-05-06 16:25 60.06835 22.00041 20041 ft 203 kts 255°
2026-05-06 16:25 60.06495 21.97296 20036 ft 203 kts 255°
2026-05-06 16:25 60.06152 21.94555 20037 ft 203 kts 255°
2026-05-06 16:25 60.05811 21.91818 20035 ft 203 kts 255°
2026-05-06 16:26 60.05469 21.89076 20039 ft 203 kts 255°
2026-05-06 16:26 60.05126 21.86339 20036 ft 203 kts 255°
2026-05-06 16:26 60.04783 21.83603 20039 ft 203 kts 255°
2026-05-06 16:26 60.04441 21.80872 20038 ft 203 kts 255°
2026-05-06 16:27 60.04097 21.78136 20039 ft 202 kts 255°
2026-05-06 16:27 60.03753 21.75406 20038 ft 202 kts 255°
2026-05-06 16:27 60.03408 21.72670 20038 ft 202 kts 255°
2026-05-06 16:27 60.03063 21.69938 20036 ft 202 kts 255°
2026-05-06 16:28 60.02717 21.67210 20039 ft 202 kts 255°
2026-05-06 16:28 60.02371 21.64478 20038 ft 202 kts 255°
2026-05-06 16:28 60.02024 21.61751 20036 ft 202 kts 255°
2026-05-06 16:28 60.01677 21.59029 20036 ft 202 kts 255°
2026-05-06 16:29 60.01448 21.57224 20037 ft 202 kts 255°
2026-05-06 16:29 60.01101 21.54509 20040 ft 202 kts 255°
2026-05-06 16:29 60.00754 21.51787 20039 ft 202 kts 255°
2026-05-06 16:29 60.00406 21.49074 20039 ft 202 kts 255°
2026-05-06 16:30 60.00057 21.46363 20037 ft 201 kts 255°
2026-05-06 16:30 59.99827 21.44566 20042 ft 201 kts 255°
2026-05-06 16:30 59.99358 21.40938 20040 ft 201 kts 254°
2026-05-06 16:30 59.99009 21.38232 20038 ft 201 kts 255°
2026-05-06 16:31 59.98670 21.35519 20038 ft 201 kts 255°
2026-05-06 16:31 59.98337 21.32810 20040 ft 201 kts 255°
2026-05-06 16:31 59.97999 21.30104 20041 ft 201 kts 255°
2026-05-06 16:31 59.97659 21.27400 20039 ft 201 kts 255°
2026-05-06 16:32 59.97319 21.24698 20039 ft 201 kts 255°
2026-05-06 16:32 59.96979 21.21998 20040 ft 201 kts 255°
2026-05-06 16:32 59.96637 21.19302 20041 ft 200 kts 255°
2026-05-06 16:32 59.96296 21.16605 20039 ft 200 kts 255°
2026-05-06 16:33 59.95954 21.13908 20040 ft 200 kts 255°
2026-05-06 16:33 59.95616 21.11252 20040 ft 200 kts 255°
2026-05-06 16:33 59.95273 21.08562 20039 ft 200 kts 255°
2026-05-06 16:34 59.94586 21.03187 20038 ft 200 kts 255°
2026-05-06 16:34 59.94243 21.00502 20040 ft 200 kts 255°
2026-05-06 16:34 59.93898 20.97821 20034 ft 200 kts 255°
2026-05-06 16:34 59.93554 20.95130 20032 ft 200 kts 255°
2026-05-06 16:35 59.93207 20.92445 20033 ft 199 kts 255°
2026-05-06 16:35 59.92862 20.89767 20034 ft 199 kts 255°
2026-05-06 16:35 59.92516 20.87090 20035 ft 199 kts 255°
2026-05-06 16:35 59.92174 20.84446 20037 ft 199 kts 255°
2026-05-06 16:36 59.91828 20.81774 20034 ft 199 kts 255°
2026-05-06 16:36 59.91477 20.79071 20036 ft 199 kts 255°
2026-05-06 16:36 59.91134 20.76437 20036 ft 199 kts 255°
2026-05-06 16:36 59.90788 20.73771 20035 ft 199 kts 255°
2026-05-06 16:37 59.90440 20.71108 20036 ft 198 kts 255°
2026-05-06 16:37 59.90092 20.68448 20039 ft 198 kts 255°
2026-05-06 16:37 59.89743 20.65789 20038 ft 198 kts 255°
2026-05-06 16:37 59.89395 20.63133 20037 ft 198 kts 254°
2026-05-06 16:38 59.89046 20.60482 20033 ft 198 kts 255°
2026-05-06 16:38 59.88697 20.57830 20034 ft 198 kts 254°
2026-05-06 16:38 59.88348 20.55182 20033 ft 198 kts 254°
2026-05-06 16:38 59.87997 20.52530 20034 ft 198 kts 254°
2026-05-06 16:39 59.87647 20.49883 20034 ft 197 kts 254°
2026-05-06 16:39 59.87297 20.47237 20035 ft 197 kts 254°
2026-05-06 16:39 59.86945 20.44596 20033 ft 197 kts 254°
2026-05-06 16:39 59.86594 20.41958 20033 ft 197 kts 254°
2026-05-06 16:40 59.86243 20.39322 20036 ft 197 kts 254°
2026-05-06 16:40 59.85892 20.36690 20033 ft 197 kts 254°
2026-05-06 16:40 59.85539 20.34050 20032 ft 197 kts 254°
2026-05-06 16:40 59.85187 20.31421 20030 ft 197 kts 254°
2026-05-06 16:41 59.84835 20.28793 20032 ft 197 kts 254°
2026-05-06 16:41 59.84482 20.26163 20031 ft 197 kts 254°
2026-05-06 16:41 59.84133 20.23569 20032 ft 196 kts 254°
2026-05-06 16:41 59.83779 20.20946 20030 ft 196 kts 254°
2026-05-06 16:42 59.83426 20.18326 20034 ft 196 kts 254°
2026-05-06 16:42 59.83072 20.15708 20032 ft 196 kts 254°
2026-05-06 16:42 59.82717 20.13089 20033 ft 196 kts 254°
2026-05-06 16:42 59.82362 20.10472 20029 ft 196 kts 254°
2026-05-06 16:43 59.82006 20.07856 20034 ft 196 kts 254°
2026-05-06 16:43 59.81650 20.05246 20033 ft 196 kts 254°
2026-05-06 16:43 59.81298 20.02669 20031 ft 195 kts 254°
2026-05-06 16:43 59.80942 20.00067 20030 ft 195 kts 254°
2026-05-06 16:44 59.80586 19.97460 20034 ft 195 kts 254°
2026-05-06 16:44 59.80229 19.94861 20033 ft 195 kts 254°
2026-05-06 16:44 59.79872 19.92260 20029 ft 195 kts 254°
2026-05-06 16:44 59.79514 19.89665 20027 ft 195 kts 254°
2026-05-06 16:45 59.79157 19.87070 20030 ft 195 kts 254°
2026-05-06 16:45 59.78798 19.84471 20028 ft 195 kts 254°
2026-05-06 16:45 59.78439 19.81874 20028 ft 195 kts 254°
2026-05-06 16:45 59.78080 19.79284 20025 ft 194 kts 254°
2026-05-06 16:46 59.77722 19.76698 20032 ft 194 kts 254°
2026-05-06 16:46 59.77363 19.74113 20029 ft 194 kts 254°
2026-05-06 16:46 59.77003 19.71529 20026 ft 194 kts 254°
2026-05-06 16:46 59.76644 19.68951 20029 ft 194 kts 254°
2026-05-06 16:47 59.76283 19.66367 20030 ft 194 kts 254°
2026-05-06 16:47 59.75923 19.63791 20025 ft 194 kts 254°
2026-05-06 16:47 59.75562 19.61216 20026 ft 194 kts 254°
2026-05-06 16:47 59.75201 19.58643 20029 ft 194 kts 253°
2026-05-06 16:48 59.74840 19.56071 20032 ft 194 kts 254°
2026-05-06 16:48 59.74482 19.53528 20027 ft 193 kts 254°
2026-05-06 16:48 59.74120 19.50956 20028 ft 193 kts 254°
2026-05-06 16:48 59.73757 19.48391 20028 ft 193 kts 254°
2026-05-06 16:49 59.73394 19.45824 20030 ft 193 kts 254°
2026-05-06 16:49 59.73032 19.43261 20027 ft 193 kts 254°
2026-05-06 16:49 59.72668 19.40699 20029 ft 193 kts 254°
2026-05-06 16:49 59.72304 19.38140 20027 ft 193 kts 254°
2026-05-06 16:50 59.71940 19.35581 20034 ft 193 kts 253°
2026-05-06 16:50 59.71576 19.33024 20018 ft 193 kts 253°
2026-05-06 16:50 59.71217 19.30505 20018 ft 193 kts 254°
2026-05-06 16:50 59.70848 19.27924 20029 ft 192 kts 254°
2026-05-06 16:51 59.70488 19.25408 20029 ft 192 kts 253°
2026-05-06 16:51 59.70123 19.22864 20015 ft 192 kts 253°
2026-05-06 16:51 59.69757 19.20318 20025 ft 192 kts 253°
2026-05-06 16:51 59.69391 19.17775 20029 ft 192 kts 253°
2026-05-06 16:52 59.69025 19.15235 20027 ft 192 kts 254°
2026-05-06 16:52 59.68657 19.12691 20020 ft 192 kts 254°
2026-05-06 16:52 59.68289 19.10151 20018 ft 192 kts 254°
2026-05-06 16:52 59.67922 19.07618 20024 ft 192 kts 254°
2026-05-06 16:53 59.67554 19.05081 20018 ft 192 kts 254°
2026-05-06 16:53 59.67187 19.02551 20020 ft 191 kts 254°
2026-05-06 16:53 59.66819 19.00018 20027 ft 191 kts 254°
2026-05-06 16:53 59.66451 18.97492 20016 ft 191 kts 254°
2026-05-06 16:54 59.66082 18.94968 20027 ft 191 kts 254°
2026-05-06 16:54 59.65718 18.92476 20017 ft 191 kts 254°
2026-05-06 16:54 59.65344 18.89920 20008 ft 191 kts 254°
2026-05-06 16:54 59.64975 18.87401 20018 ft 191 kts 254°
2026-05-06 16:55 59.64609 18.84912 20019 ft 191 kts 254°
2026-05-06 16:55 59.64240 18.82395 20015 ft 191 kts 254°
2026-05-06 16:55 59.63870 18.79882 20010 ft 191 kts 254°
2026-05-06 16:55 59.63499 18.77367 20011 ft 190 kts 254°
2026-05-06 16:56 59.63128 18.74858 20020 ft 190 kts 254°
2026-05-06 16:56 59.62758 18.72355 20016 ft 190 kts 254°
2026-05-06 16:56 59.62386 18.69844 20011 ft 190 kts 254°
2026-05-06 16:56 59.62014 18.67341 20010 ft 190 kts 253°
2026-05-06 16:57 59.61642 18.64842 20008 ft 190 kts 253°
2026-05-06 16:57 59.61269 18.62338 20001 ft 190 kts 254°
2026-05-06 16:57 59.60898 18.59837 20005 ft 190 kts 253°
2026-05-06 16:57 59.60529 18.57369 19999 ft 189 kts 254°
2026-05-06 16:58 59.60156 18.54875 20000 ft 189 kts 253°
2026-05-06 16:58 59.59800 18.52496 19995 ft 189 kts 253°
2026-05-06 16:58 59.59418 18.49944 19998 ft 189 kts 253°
2026-05-06 16:58 59.59044 18.47460 19995 ft 189 kts 253°
2026-05-06 16:59 59.58671 18.44979 19994 ft 188 kts 253°
2026-05-06 16:59 59.58299 18.42501 19990 ft 188 kts 253°
2026-05-06 16:59 59.57963 18.40263 19993 ft 188 kts 253°
2026-05-06 16:59 59.57579 18.37729 19982 ft 188 kts 253°
2026-05-06 17:00 59.57207 18.35255 19988 ft 188 kts 253°
2026-05-06 17:00 59.56833 18.32787 19984 ft 188 kts 253°
2026-05-06 17:00 59.56458 18.30322 19985 ft 188 kts 253°
2026-05-06 17:00 59.56082 18.27848 19980 ft 188 kts 253°
2026-05-06 17:01 59.55706 18.25381 19984 ft 188 kts 253°
2026-05-06 17:01 59.55330 18.22916 19979 ft 188 kts 253°
2026-05-06 17:01 59.54959 18.20481 19976 ft 188 kts 253°
2026-05-06 17:01 59.54582 18.18017 19973 ft 188 kts 253°
2026-05-06 17:02 59.54205 18.15558 19981 ft 187 kts 253°
2026-05-06 17:02 59.53828 18.13095 19975 ft 187 kts 253°
2026-05-06 17:02 59.53452 18.10644 19975 ft 187 kts 253°
2026-05-06 17:02 59.53076 18.08196 19977 ft 187 kts 253°
2026-05-06 17:03 59.52699 18.05745 19970 ft 187 kts 253°
2026-05-06 17:03 59.52321 18.03297 19971 ft 186 kts 253°
2026-05-06 17:03 59.51944 18.00858 19972 ft 186 kts 253°
2026-05-06 17:03 59.51568 17.98419 19974 ft 186 kts 253°
2026-05-06 17:04 59.51192 17.95992 19980 ft 186 kts 253°
2026-05-06 17:04 59.50814 17.93556 19972 ft 186 kts 253°
2026-05-06 17:04 59.50436 17.91119 19975 ft 186 kts 253°
2026-05-06 17:04 59.50057 17.88680 19976 ft 186 kts 253°
2026-05-06 17:05 59.49681 17.86268 19989 ft 187 kts 253°
2026-05-06 17:05 59.49300 17.83825 19994 ft 187 kts 253°
2026-05-06 17:05 59.48919 17.81382 19993 ft 187 kts 253°
2026-05-06 17:05 59.48536 17.78930 19993 ft 187 kts 253°
2026-05-06 17:06 59.48151 17.76478 19989 ft 187 kts 253°
2026-05-06 17:06 59.47767 17.74027 19995 ft 187 kts 253°
2026-05-06 17:06 59.47382 17.71577 19989 ft 188 kts 253°
2026-05-06 17:06 59.46997 17.69124 19991 ft 188 kts 253°
2026-05-06 17:07 59.46611 17.66678 19986 ft 188 kts 253°
2026-05-06 17:07 59.46223 17.64218 19984 ft 188 kts 253°
2026-05-06 17:07 59.45836 17.61765 19989 ft 188 kts 253°
2026-05-06 17:07 59.45449 17.59315 19994 ft 188 kts 253°
2026-05-06 17:08 59.45060 17.56860 19986 ft 188 kts 253°
2026-05-06 17:08 59.44670 17.54403 19984 ft 188 kts 253°
2026-05-06 17:08 59.44287 17.51981 19983 ft 188 kts 253°
2026-05-06 17:08 59.43897 17.49525 19987 ft 188 kts 253°
2026-05-06 17:09 59.43506 17.47070 19986 ft 189 kts 253°
2026-05-06 17:09 59.43112 17.44608 19977 ft 189 kts 253°
2026-05-06 17:09 59.42718 17.42145 19979 ft 189 kts 253°
2026-05-06 17:09 59.42325 17.39679 19985 ft 189 kts 253°
2026-05-06 17:10 59.41928 17.37213 19978 ft 189 kts 253°
2026-05-06 17:10 59.41533 17.34741 19983 ft 190 kts 253°
2026-05-06 17:10 59.41135 17.32265 19975 ft 190 kts 253°
2026-05-06 17:10 59.40738 17.29787 19974 ft 190 kts 253°
2026-05-06 17:11 59.40337 17.27308 19972 ft 191 kts 253°
2026-05-06 17:11 59.39937 17.24823 19979 ft 191 kts 253°
2026-05-06 17:11 59.39535 17.22336 19973 ft 191 kts 253°
2026-05-06 17:11 59.39138 17.19881 19967 ft 191 kts 253°
2026-05-06 17:12 59.38735 17.17389 19964 ft 192 kts 253°
2026-05-06 17:12 59.38331 17.14897 19966 ft 192 kts 253°
2026-05-06 17:12 59.37924 17.12395 19968 ft 192 kts 253°
2026-05-06 17:12 59.37518 17.09897 19977 ft 192 kts 253°
2026-05-06 17:13 59.37111 17.07392 19976 ft 193 kts 253°
2026-05-06 17:13 59.36702 17.04889 19973 ft 193 kts 253°
2026-05-06 17:13 59.36293 17.02384 19975 ft 193 kts 253°
2026-05-06 17:13 59.35882 16.99874 19973 ft 193 kts 253°
2026-05-06 17:14 59.35472 16.97370 19971 ft 193 kts 253°
2026-05-06 17:14 59.35060 16.94858 19969 ft 194 kts 253°
2026-05-06 17:14 59.34647 16.92345 19963 ft 194 kts 253°
2026-05-06 17:14 59.34233 16.89832 19969 ft 194 kts 253°
2026-05-06 17:15 59.33819 16.87306 19968 ft 194 kts 253°
2026-05-06 17:15 59.33400 16.84788 19974 ft 195 kts 253°
2026-05-06 17:15 59.32978 16.82266 19973 ft 195 kts 253°
2026-05-06 17:15 59.32527 16.79751 19971 ft 196 kts 251°
2026-05-06 17:16 59.32018 16.77273 19974 ft 196 kts 250°
2026-05-06 17:16 59.31496 16.74808 19972 ft 196 kts 250°
2026-05-06 17:16 59.30976 16.72336 19975 ft 196 kts 250°
2026-05-06 17:16 59.30458 16.69864 19970 ft 197 kts 250°
2026-05-06 17:17 59.29944 16.67420 19966 ft 197 kts 250°
2026-05-06 17:17 59.29418 16.64946 19969 ft 197 kts 250°
2026-05-06 17:17 59.28894 16.62463 19970 ft 197 kts 250°
2026-05-06 17:17 59.28370 16.59980 19968 ft 198 kts 250°
2026-05-06 17:18 59.27845 16.57493 19968 ft 198 kts 250°
2026-05-06 17:18 59.27321 16.55006 19969 ft 198 kts 250°
2026-05-06 17:18 59.26792 16.52515 19970 ft 198 kts 250°
2026-05-06 17:18 59.26262 16.50023 19970 ft 199 kts 250°
2026-05-06 17:19 59.25732 16.47530 19965 ft 199 kts 250°
2026-05-06 17:19 59.25201 16.45035 19968 ft 199 kts 250°
2026-05-06 17:19 59.24849 16.43383 19964 ft 199 kts 250°
2026-05-06 17:19 59.24316 16.40881 19968 ft 199 kts 250°
2026-05-06 17:20 59.23782 16.38382 19967 ft 199 kts 250°
2026-05-06 17:20 59.23248 16.35886 19965 ft 200 kts 250°
2026-05-06 17:20 59.22711 16.33378 19966 ft 200 kts 249°
2026-05-06 17:20 59.22174 16.30872 19966 ft 200 kts 250°
2026-05-06 17:21 59.21638 16.28366 19968 ft 200 kts 250°
2026-05-06 17:21 59.21097 16.25855 19967 ft 201 kts 249°
2026-05-06 17:21 59.20556 16.23334 19964 ft 201 kts 250°
2026-05-06 17:21 59.20015 16.20821 19964 ft 201 kts 249°
2026-05-06 17:22 59.19471 16.18302 19963 ft 201 kts 249°
2026-05-06 17:22 59.18926 16.15781 19959 ft 202 kts 249°
2026-05-06 17:22 59.18382 16.13260 19964 ft 202 kts 249°
2026-05-06 17:22 59.17836 16.10736 19965 ft 202 kts 249°
2026-05-06 17:23 59.17285 16.08211 19964 ft 202 kts 249°
2026-05-06 17:23 59.16734 16.05725 19962 ft 203 kts 249°
2026-05-06 17:23 59.16169 16.03203 19962 ft 203 kts 249°
2026-05-06 17:23 59.15600 16.00684 19964 ft 203 kts 249°
2026-05-06 17:24 59.15039 15.98152 19962 ft 203 kts 249°
2026-05-06 17:24 59.14483 15.95619 19958 ft 203 kts 249°
2026-05-06 17:24 59.13928 15.93082 19962 ft 203 kts 249°
2026-05-06 17:24 59.13374 15.90547 19959 ft 204 kts 249°
2026-05-06 17:25 59.12819 15.88007 19962 ft 204 kts 249°
2026-05-06 17:25 59.12263 15.85466 19961 ft 205 kts 249°
2026-05-06 17:25 59.11704 15.82913 19960 ft 205 kts 249°
2026-05-06 17:25 59.11144 15.80359 19961 ft 205 kts 249°
2026-05-06 17:26 59.10582 15.77808 19957 ft 205 kts 249°
2026-05-06 17:26 59.10018 15.75254 19959 ft 205 kts 249°
2026-05-06 17:26 59.09456 15.72700 19960 ft 206 kts 249°
2026-05-06 17:26 59.08891 15.70139 19957 ft 206 kts 249°
2026-05-06 17:27 59.08325 15.67576 19959 ft 206 kts 249°
2026-05-06 17:27 59.07764 15.65047 19951 ft 207 kts 249°
2026-05-06 17:27 59.07189 15.62443 19953 ft 207 kts 249°
2026-05-06 17:27 59.06626 15.59909 19955 ft 207 kts 249°
2026-05-06 17:28 59.06054 15.57336 19953 ft 207 kts 249°
2026-05-06 17:28 59.05482 15.54756 19948 ft 208 kts 249°
2026-05-06 17:28 59.04909 15.52183 19953 ft 208 kts 249°
2026-05-06 17:28 59.04334 15.49608 19952 ft 208 kts 249°
2026-05-06 17:29 59.03758 15.47029 19953 ft 208 kts 249°
2026-05-06 17:29 59.03183 15.44453 19948 ft 208 kts 249°
2026-05-06 17:29 59.02605 15.41871 19949 ft 208 kts 249°
2026-05-06 17:29 59.02026 15.39290 19950 ft 208 kts 249°
2026-05-06 17:30 59.01446 15.36704 19947 ft 209 kts 249°
2026-05-06 17:30 59.00874 15.34155 19945 ft 209 kts 249°
2026-05-06 17:30 59.00286 15.31542 19949 ft 209 kts 249°
2026-05-06 17:30 58.99712 15.28992 19948 ft 209 kts 249°
2026-05-06 17:31 58.99132 15.26413 19947 ft 209 kts 249°
2026-05-06 17:31 58.98548 15.23824 19949 ft 209 kts 249°
2026-05-06 17:31 58.97964 15.21240 19945 ft 209 kts 249°
2026-05-06 17:31 58.97380 15.18656 19950 ft 209 kts 249°
2026-05-06 17:32 58.96793 15.16067 19948 ft 210 kts 249°
2026-05-06 17:32 58.96204 15.13468 19948 ft 210 kts 249°
2026-05-06 17:32 58.95616 15.10875 19947 ft 210 kts 249°
2026-05-06 17:32 58.95026 15.08280 19949 ft 211 kts 249°
2026-05-06 17:33 58.94435 15.05683 19947 ft 211 kts 249°
2026-05-06 17:33 58.93843 15.03080 19943 ft 211 kts 249°
2026-05-06 17:33 58.93248 15.00478 19946 ft 212 kts 248°
2026-05-06 17:33 58.92660 14.97903 19943 ft 212 kts 248°
2026-05-06 17:34 58.92064 14.95293 19940 ft 212 kts 248°
2026-05-06 17:34 58.91467 14.92686 19942 ft 212 kts 248°
2026-05-06 17:34 58.90870 14.90082 19944 ft 212 kts 248°
2026-05-06 17:34 58.90272 14.87469 19943 ft 212 kts 248°
2026-05-06 17:35 58.89670 14.84854 19944 ft 212 kts 248°
2026-05-06 17:35 58.89069 14.82245 19945 ft 212 kts 248°
2026-05-06 17:35 58.88467 14.79630 19942 ft 213 kts 248°
2026-05-06 17:36 58.87261 14.74401 19943 ft 213 kts 248°
2026-05-06 17:36 58.86654 14.71783 19947 ft 214 kts 248°
2026-05-06 17:36 58.86047 14.69157 19943 ft 214 kts 248°
2026-05-06 17:36 58.85445 14.66567 19940 ft 214 kts 248°
2026-05-06 17:37 58.84836 14.63939 19942 ft 215 kts 248°
2026-05-06 17:37 58.84227 14.61308 19942 ft 215 kts 248°
2026-05-06 17:37 58.83613 14.58674 19947 ft 215 kts 248°
2026-05-06 17:37 58.82996 14.56033 19946 ft 215 kts 248°
2026-05-06 17:38 58.82381 14.53395 19941 ft 216 kts 248°
2026-05-06 17:38 58.81763 14.50748 19943 ft 216 kts 248°
2026-05-06 17:38 58.81144 14.48106 19941 ft 216 kts 248°
2026-05-06 17:38 58.80523 14.45457 19940 ft 216 kts 248°
2026-05-06 17:39 58.79904 14.42808 19943 ft 217 kts 248°
2026-05-06 17:39 58.79283 14.40160 19943 ft 217 kts 248°
2026-05-06 17:39 58.78660 14.37510 19939 ft 217 kts 248°
2026-05-06 17:39 58.78037 14.34859 19943 ft 217 kts 248°
2026-05-06 17:40 58.77413 14.32213 19941 ft 217 kts 248°
2026-05-06 17:40 58.76786 14.29556 19940 ft 217 kts 248°
2026-05-06 17:40 58.76159 14.26903 19941 ft 218 kts 248°
2026-05-06 17:40 58.75530 14.24240 19939 ft 218 kts 248°
2026-05-06 17:41 58.74901 14.21582 19938 ft 218 kts 248°
2026-05-06 17:41 58.74278 14.18961 19939 ft 218 kts 248°
2026-05-06 17:41 58.73647 14.16297 19940 ft 218 kts 248°
2026-05-06 17:41 58.73016 14.13632 19937 ft 219 kts 248°
2026-05-06 17:42 58.72380 14.10967 19938 ft 219 kts 248°
2026-05-06 17:42 58.71744 14.08299 19934 ft 219 kts 248°
2026-05-06 17:42 58.71109 14.05631 19936 ft 219 kts 248°
2026-05-06 17:42 58.70471 14.02957 19939 ft 220 kts 248°
2026-05-06 17:43 58.69833 14.00285 19933 ft 220 kts 248°
2026-05-06 17:43 58.69193 13.97616 19934 ft 220 kts 248°
2026-05-06 17:43 58.68553 13.94949 19938 ft 220 kts 248°
2026-05-06 17:43 58.67912 13.92278 19937 ft 220 kts 248°
2026-05-06 17:44 58.67278 13.89643 19939 ft 220 kts 248°
2026-05-06 17:44 58.66634 13.86963 19941 ft 221 kts 248°
2026-05-06 17:44 58.65989 13.84288 19938 ft 221 kts 248°
2026-05-06 17:44 58.65343 13.81608 19938 ft 221 kts 248°
2026-05-06 17:45 58.64696 13.78928 19936 ft 221 kts 248°
2026-05-06 17:45 58.64047 13.76242 19939 ft 222 kts 248°
2026-05-06 17:45 58.63397 13.73555 19936 ft 222 kts 248°
2026-05-06 17:45 58.62747 13.70867 19943 ft 222 kts 248°
2026-05-06 17:46 58.62093 13.68172 19937 ft 223 kts 248°
2026-05-06 17:46 58.61440 13.65479 19936 ft 223 kts 248°
2026-05-06 17:46 58.60784 13.62782 19939 ft 223 kts 247°
2026-05-06 17:46 58.60128 13.60083 19940 ft 223 kts 247°
2026-05-06 17:47 58.59478 13.57418 19932 ft 223 kts 247°
2026-05-06 17:47 58.58819 13.54718 19936 ft 223 kts 247°
2026-05-06 17:47 58.58159 13.52019 19939 ft 224 kts 247°
2026-05-06 17:47 58.57499 13.49318 19937 ft 224 kts 247°
2026-05-06 17:48 58.56838 13.46620 19935 ft 224 kts 247°
2026-05-06 17:48 58.56175 13.43919 19935 ft 224 kts 247°
2026-05-06 17:48 58.55477 13.41248 19932 ft 224 kts 239°
2026-05-06 17:48 58.54221 13.39413 19942 ft 234 kts 213°
2026-05-06 17:49 58.52738 13.38087 19933 ft 234 kts 213°
2026-05-06 17:49 58.51305 13.36619 19935 ft 233 kts 218°
2026-05-06 17:49 58.49958 13.34917 19931 ft 232 kts 222°
2026-05-06 17:49 58.48657 13.33034 19709 ft 240 kts 224°
2026-05-06 17:50 58.47311 13.31015 19375 ft 252 kts 224°
2026-05-06 17:50 58.45900 13.28910 19030 ft 262 kts 223°
2026-05-06 17:50 58.44443 13.26819 18680 ft 270 kts 222°
2026-05-06 17:50 58.42917 13.24658 18323 ft 276 kts 222°
2026-05-06 17:51 58.41355 13.22450 17911 ft 282 kts 221°
2026-05-06 17:51 58.39772 13.20210 17485 ft 283 kts 221°
2026-05-06 17:51 58.38183 13.17971 17057 ft 286 kts 221°
2026-05-06 17:51 58.36590 13.15722 16643 ft 284 kts 221°
2026-05-06 17:52 58.35004 13.13492 16232 ft 282 kts 221°
2026-05-06 17:52 58.33445 13.11299 16030 ft 274 kts 221°
2026-05-06 17:52 58.31928 13.09195 15979 ft 264 kts 220°
2026-05-06 17:52 58.30438 13.07148 15624 ft 266 kts 220°
2026-05-06 17:53 58.28935 13.05051 15234 ft 269 kts 220°
2026-05-06 17:53 58.27422 13.02917 14851 ft 272 kts 220°
2026-05-06 17:53 58.25876 13.00743 14469 ft 280 kts 220°
2026-05-06 17:53 58.24316 12.98547 14081 ft 278 kts 220°
2026-05-06 17:54 58.22763 12.96345 13692 ft 278 kts 220°
2026-05-06 17:54 58.21211 12.94171 13262 ft 277 kts 219°
2026-05-06 17:54 58.19677 12.92034 12847 ft 277 kts 219°
2026-05-06 17:54 58.18129 12.89882 12439 ft 276 kts 219°
2026-05-06 17:55 58.16582 12.87734 12031 ft 275 kts 218°
2026-05-06 17:55 58.15038 12.85591 11634 ft 275 kts 218°
2026-05-06 17:55 58.13501 12.83457 11249 ft 274 kts 217°
2026-05-06 17:55 58.11965 12.81330 10864 ft 273 kts 217°
2026-05-06 17:56 58.10434 12.79212 10488 ft 272 kts 217°
2026-05-06 17:56 58.08922 12.77129 10160 ft 266 kts 217°
2026-05-06 17:56 58.07437 12.75078 9797 ft 262 kts 216°
2026-05-06 17:56 58.05971 12.73056 9403 ft 259 kts 216°
2026-05-06 17:57 58.05258 12.72076 9202 ft 258 kts 216°
2026-05-06 17:57 58.03812 12.70085 8825 ft 256 kts 216°
2026-05-06 17:57 58.02371 12.68101 8455 ft 255 kts 216°
2026-05-06 17:58 58.00970 12.66177 8086 ft 254 kts 216°
2026-05-06 17:58 57.99545 12.64219 7727 ft 253 kts 216°
2026-05-06 17:58 57.98122 12.62274 7378 ft 252 kts 216°
2026-05-06 17:58 57.96706 12.60331 7031 ft 252 kts 215°
2026-05-06 17:59 57.95292 12.58396 6692 ft 251 kts 215°
2026-05-06 17:59 57.93885 12.56459 6368 ft 250 kts 215°
2026-05-06 17:59 57.92483 12.54518 6030 ft 250 kts 215°
2026-05-06 17:59 57.91086 12.52580 5688 ft 250 kts 215°
2026-05-06 18:00 57.89693 12.50650 5326 ft 247 kts 215°
2026-05-06 18:00 57.88319 12.48746 4992 ft 244 kts 215°
2026-05-06 18:00 57.86946 12.46945 4636 ft 236 kts 212°
2026-05-06 18:00 57.85543 12.45440 4283 ft 229 kts 206°
2026-05-06 18:01 57.84119 12.44207 3909 ft 222 kts 204°
2026-05-06 18:01 57.82719 12.43026 3561 ft 218 kts 205°
2026-05-06 18:01 57.81352 12.41813 3191 ft 216 kts 207°
2026-05-06 18:01 57.80013 12.40557 2822 ft 215 kts 208°
2026-05-06 18:02 57.78704 12.39322 2688 ft 203 kts 208°
2026-05-06 18:02 57.77486 12.38201 2698 ft 188 kts 207°
2026-05-06 18:02 57.76335 12.37159 2518 ft 181 kts 208°
2026-05-06 18:02 57.75244 12.36166 2271 ft 169 kts 209°
2026-05-06 18:03 57.74180 12.35192 2030 ft 177 kts 207°
2026-05-06 18:03 57.73067 12.34164 1775 ft 177 kts 208°
2026-05-06 18:03 57.72008 12.33193 1543 ft 163 kts 209°
2026-05-06 18:03 57.71016 12.32279 1326 ft 155 kts 209°
2026-05-06 18:04 57.70098 12.31483 1151 ft 136 kts 207°
2026-05-06 18:04 57.69269 12.30761 959 ft 128 kts 211°
2026-05-06 18:04 57.68491 12.30005 809 ft 127 kts 211°
2026-05-06 18:04 57.67700 12.29285 594 ft 125 kts 210°
2026-05-06 18:05 57.66954 12.28597 514 ft 110 kts 212°
2026-05-06 18:05 57.66564 12.28221 512 ft 46 kts 209°
2026-05-06 18:05 57.66303 12.28000 511 ft 37 kts 206°
2026-05-06 18:05 57.66153 12.27952 515 ft 11 kts 146°
2026-05-06 18:06 57.66105 12.28118 516 ft 12 kts 86°
2026-05-06 18:06 57.66151 12.28208 516 ft 8 kts 30°
2026-05-06 18:07 57.66200 12.28250 518 ft 5 kts 24°
2026-05-06 18:07 57.66228 12.28273 517 ft 0 kts 23°
2026-05-06 18:08 57.66247 12.28289 517 ft 8 kts 24°
2026-05-06 18:08 57.66307 12.28346 519 ft 11 kts 26°
2026-05-06 18:08 57.66374 12.28406 521 ft 11 kts 25°
2026-05-06 18:08 57.66452 12.28476 519 ft 14 kts 26°
2026-05-06 18:09 57.66542 12.28562 518 ft 15 kts 26°
2026-05-06 18:09 57.66639 12.28648 515 ft 16 kts 25°
2026-05-06 18:09 57.66735 12.28734 517 ft 15 kts 27°
2026-05-06 18:09 57.66816 12.28880 514 ft 18 kts 77°
2026-05-06 18:10 57.66781 12.29081 515 ft 14 kts 117°
2026-05-06 18:10 57.66793 12.29183 516 ft 10 kts 26°
2026-05-06 18:10 57.66862 12.29244 516 ft 9 kts 25°
2026-05-06 18:10 57.66863 12.29317 516 ft 8 kts 120°
2026-05-06 18:11 57.66848 12.29375 516 ft 0 kts 115°